Weather History for Springfield, CO

Change the Weather History Date:

Wednesday, June 26, 2013

  Actual Average Record
Temperature  
Mean Temperature 80 °F -  
Max Temperature 101 °F 89 °F 105 °F (2012)
Min Temperature 59 °F 59 °F 46 °F (2006)
Degree Days  
Heating Degree Days 0 0  
Month to date heating degree days 19 19  
Since 1 June heating degree days 19 19  
Since 1 July heating degree days 5211 5281  
Cooling Degree Days 15 9  
Month to date cooling degree days 297 170  
Year to date cooling degree days 414 224  
Since 1 June cooling degree days 297 170  
Growing Degree Days 30 (Base 50)    
Moisture  
Dew Point 48 °F    
Average Humidity 39    
Maximum Humidity 63    
Minimum Humidity 14    
Precipitation  
Precipitation 0.00 in 0.08 in 0.89 in (2004)
Month to date precipitation 1.64 2.18  
Year to date precipitation 3.62 7.75  
Sea Level Pressure  
Sea Level Pressure 29.80 in    
Wind  
Wind Speed 11 mph (East)    
Max Wind Speed 20 mph    
Max Gust Speed 26 mph    
T = Trace of Precipitation, MM = Missing Value Source: NWS Daily Summary

Daily Weather History Graph

Daily Weather History Graph

Search for Another Location

Airport:

Trip Planner

Search our weather history database for the weather conditions in past years. The results will help you decide how hot, cold, wet, or windy it might be!

Date:

Astronomy

Jun. 26, 2013 Rise Set
Actual Time 5:31 AM MDT 8:14 PM MDT
Civil Twilight 5:00 AM MDT 8:45 PM MDT
Nautical Twilight 4:22 AM MDT 9:24 PM MDT
Astronomical Twilight 3:38 AM MDT 10:08 PM MDT
Moon 10:45 PM MDT (6/26) 9:20 AM MDT (6/26)
Length of Visible Light 15h 45m
Length of Day
14h 43m
Waning Gibbous, 85% of the Moon is Illuminated
Jun 26
Waning Gibbous
Jun 29
Last Quarter
Jul 8
New
Jul 15
First Quarter
Jul 22
Full

Hourly Weather History & Observations

Time (MDT) Temp. Heat Index Dew Point Humidity Pressure Visibility Wind Dir Wind Speed Gust Speed Precip Events Conditions
12:56 AM 69.1 °F - 32.0 °F 25% 29.71 in - East 6.9 mph - N/A   Unknown
1:56 AM 64.9 °F - 37.9 °F 37% 29.72 in - NNE 3.5 mph - N/A   Unknown
2:56 AM 61.0 °F - 43.0 °F 52% 29.73 in - North 8.1 mph - N/A   Unknown
3:56 AM 61.0 °F - 46.0 °F 58% 29.74 in - NNW 10.4 mph - N/A   Unknown
4:56 AM 63.0 °F - 48.9 °F 60% 29.75 in - North 8.1 mph - N/A   Unknown
5:56 AM 64.0 °F - 52.0 °F 65% 29.78 in - North 8.1 mph - N/A   Unknown
6:56 AM 70.0 °F - 55.0 °F 59% 29.80 in - NNW 6.9 mph - N/A   Unknown
7:56 AM 79.0 °F - 59.0 °F 50% 29.81 in - North 10.4 mph - N/A   Unknown
8:56 AM 84.9 °F 84.2 °F 57.9 °F 40% 29.82 in - NE 11.5 mph - N/A   Unknown
9:56 AM 89.1 °F 87.7 °F 57.0 °F 34% 29.83 in - ENE 15.0 mph 20.7 mph N/A   Unknown
10:56 AM 93.0 °F - 52.0 °F 25% 29.84 in - East 12.7 mph 21.9 mph N/A   Unknown
11:56 AM 96.1 °F - 44.1 °F 17% 29.84 in - ESE 15.0 mph 23.0 mph N/A   Unknown
12:56 PM 97.0 °F - 42.1 °F 15% 29.82 in - ESE 13.8 mph - N/A   Unknown
1:56 PM 99.0 °F - 43.0 °F 15% 29.81 in - East 11.5 mph 24.2 mph N/A   Unknown
2:56 PM 100.0 °F - 43.0 °F 14% 29.81 in - SE 11.5 mph 20.7 mph N/A   Unknown
3:56 PM 99.0 °F - 46.0 °F 16% 29.81 in - SSE 16.1 mph 24.2 mph N/A   Unknown
4:56 PM 98.1 °F - 43.0 °F 15% 29.80 in - SSE 11.5 mph 21.9 mph N/A   Unknown
5:56 PM 97.0 °F - 46.9 °F 18% 29.80 in - SSE 15.0 mph 23.0 mph N/A   Unknown
6:56 PM 93.9 °F - 45.0 °F 18% 29.81 in - SE 13.8 mph - N/A   Unknown
7:56 PM 90.0 °F - 45.0 °F 21% 29.80 in - SE 12.7 mph - N/A   Unknown
8:56 PM 84.9 °F - 48.0 °F 28% 29.81 in - SE 9.2 mph - N/A   Unknown
9:56 PM 82.0 °F 81.2 °F 53.1 °F 37% 29.83 in - SE 11.5 mph - N/A   Unknown
10:56 PM 80.1 °F 80.2 °F 55.9 °F 43% 29.83 in - SE 10.4 mph - N/A   Unknown
11:56 PM 78.1 °F - 57.9 °F 50% 29.83 in - SSE 10.4 mph - N/A   Unknown